[Iaude] MPEC M13: 2019 UK [a=0.88,e=0.38,i=21.7,H=21.94]
    mpec at cfa.harvard.edu 
    mpec at cfa.harvard.edu
       
    Mon Jun 17 10:13:01 EDT 2024
    
    
  
M.P.E.C. 2024-M13                                 Issued 2024 June 17, 14:11 UT
     The Minor Planet Electronic Circulars contain information on unusual
         minor planets, routine data on comets and natural satellites,
         and occasional editorial announcements.  They are published
    on behalf of Division F of the International Astronomical Union by the
          Minor Planet Center, Smithsonian Astrophysical Observatory,
                          Cambridge, MA 02138, U.S.A.
			  
             Prepared using the Tamkin Foundation Computer Network
                              MPC at CFA.HARVARD.EDU
            URL https://www.minorplanetcenter.net/    ISSN 1523-6714
                                    2019 UK                                     
                           Revision to MPEC 2019-U34                            
Additional Observations:
     K19U00K DC2024 05 30.44105 23 44 40.52 +30 28 41.5          23.2 GVEM013695
     K19U00K DC2024 05 30.44844 23 44 41.06 +30 28 50.2          23.3 GVEM013695
     K19U00K 0C2024 06 10.60206900 00 12.102+33 59 26.50         24.30GVEM013T12
     K19U00K DC2024 06 16.44732 00 08 44.70 +35 43 08.9          23.1 GVEM013695
     K19U00K DC2024 06 16.45805 00 08 45.63 +35 43 20.3          23.0 GVEM013695
Observer details:
695 Kitt Peak.  Observers A. F. Tubbiolo, M. J. Brucker.  2.3-m f/9 reflector
    + CCD.
T12 University of Hawaii 88-inch telescope, Maunakea.  Observers J. K. Martin,
    D. J. Tholen.  Measurer D. J. Tholen.  2.24-m f/10.1 reflector + 2112 x
    2112 pixels STA1600 10k CCD.
First and last observations above in comparison with prediction:
Residuals in seconds of arc, reference and Delta-T
240530 695  0.1- 67.2-    240616 695 22.5- 67.5-    E2023-OC4   +0.02 days
Orbital elements:
2019 UK                                             PHA, Earth MOID = 0.0453 AU
Epoch 2024 Mar. 31.0 TT = JDT 2460400.5                 Veres                   
M   6.64994              (2000.0)            P               Q                  
n   1.18833783     Peri.  318.85977     -0.94634429     -0.27825192             
a   0.8827602      Node   206.39423     +0.29197294     -0.95416223             
e   0.3840676      Incl.   21.69627     -0.13850736     -0.11022841             
P   0.83           H   21.94          G   0.15           U   2                  
Residuals in seconds of arc
191013 F52  0.2+  0.3+    191019 L01  0.2-  0.1-    191027 I52  0.1-  0.1+
191013 F52  0.0   0.1-    191020 691  0.1-  0.2-    191102 I52  0.1+  0.5+
191013 F52  0.3-  0.1+    191020 691  0.1-  0.3-    191102 I52  0.7-  0.4-
191017 F51  0.1+  0.3-    191020 691  0.4+  0.7+    191102 I52  0.4+  0.7-
191017 F51  0.0   0.3+    191024 I52  0.4-  0.5+    191118 291  0.8+  0.0
191019 F51  0.0   0.0     191024 I52  0.1-  0.2+    191118 291  0.2-  0.5+
191019 F51  0.0   0.0     191024 I52  0.2+  0.0     240530 695  0.0   0.1+
191019 F51  0.0   0.0     191024 I52  0.1+  0.0     240530 695  0.2-  0.2-
191019 F51  0.1+  0.0     191026 T12  0.0   0.0     240610 T12  0.1-  0.0
191019 L01  0.6-  0.0     191026 T12  0.0   0.0     240616 695  0.3-  0.0
191019 L01  0.3-  0.2+    191027 I52  0.7-  0.4-    240616 695  0.1-  0.1-
191019 L01  0.1+  0.2-    191027 I52 (0.3+  3.2+)
Ephemeris:
2019 UK                  a,e,i = 0.88, 0.38, 22                  q = 0.5437
Date    TT    R. A. (2000) Decl.     Delta      r    Elong.  Phase     V
2024 05 18    23 30 38.5 +26 08 11   0.6499  0.8569    57.3    83.1    23.6
...
2024 06 02    23 48 04.4 +31 18 38   0.7112  0.9588    64.8    73.1    23.7
...
2024 06 10    23 59 19.2 +33 48 29   0.7277  1.0070    68.3    69.5    23.7
...
2024 06 16    00 08 04.6 +35 35 21   0.7330  1.0401    70.9    67.4    23.7
2024 06 17    00 09 32.8 +35 52 45   0.7333  1.0453    71.3    67.0    23.7
2024 06 18    00 11 01.2 +36 10 03   0.7335  1.0505    71.8    66.7    23.7
...
2024 06 24    00 19 51.8 +37 51 40   0.7312  1.0799    74.3    65.0    23.7
...
2024 07 02    00 31 29.7 +40 02 01   0.7199  1.1149    77.8    63.1    23.7
...
2024 07 17    00 51 43.6 +43 51 11   0.6756  1.1670    84.7    60.1    23.6
A. U. Tomatic                (C) Copyright 2024 MPC           M.P.E.C. 2024-M13
    
    
More information about the Iaude
mailing list